TimeEDT,TemperatureF,Dew PointF,Humidity,Sea Level PressureIn,VisibilityMPH,Wind Direction,Wind SpeedMPH,Gust SpeedMPH,PrecipitationIn,Events,Conditions,WindDirDegrees,DateUTC
12:53 AM,61.0,57.9,90,30.27,2.5,Calm,Calm,-,N/A,,Clear,0,2013-08-18 04:53:00
1:07 AM,60.8,59.0,94,30.27,3.0,Calm,Calm,-,N/A,,Clear,0,2013-08-18 05:07:00
1:53 AM,60.1,57.9,93,30.26,6.0,Calm,Calm,-,N/A,,Clear,0,2013-08-18 05:53:00
2:53 AM,61.0,59.0,93,30.26,8.0,Calm,Calm,-,N/A,,Clear,0,2013-08-18 06:53:00
3:53 AM,61.0,57.9,90,30.26,10.0,Calm,Calm,-,N/A,,Clear,0,2013-08-18 07:53:00
4:53 AM,60.1,57.9,93,30.26,10.0,Calm,Calm,-,N/A,,Clear,0,2013-08-18 08:53:00
5:53 AM,60.1,57.9,93,30.26,10.0,Calm,Calm,-,N/A,,Clear,0,2013-08-18 09:53:00
6:53 AM,61.0,57.9,90,30.27,10.0,Calm,Calm,-,N/A,,Clear,0,2013-08-18 10:53:00
7:53 AM,66.0,63.0,90,30.27,10.0,Calm,Calm,-,0.00,,Clear,0,2013-08-18 11:53:00
8:53 AM,69.1,61.0,75,30.27,10.0,Calm,Calm,-,N/A,,Clear,0,2013-08-18 12:53:00
9:53 AM,70.0,59.0,68,30.27,10.0,ESE,3.5,-,N/A,,Clear,110,2013-08-18 13:53:00
10:53 AM,71.1,57.0,61,30.27,10.0,SE,4.6,-,N/A,,Clear,140,2013-08-18 14:53:00
11:53 AM,73.0,59.0,61,30.26,10.0,South,4.6,-,N/A,,Clear,170,2013-08-18 15:53:00
12:53 PM,73.9,57.9,57,30.24,10.0,SE,5.8,-,N/A,,Clear,130,2013-08-18 16:53:00
1:53 PM,72.0,57.0,59,30.23,10.0,SSE,4.6,-,N/A,,Clear,150,2013-08-18 17:53:00
2:53 PM,72.0,55.0,55,30.21,10.0,SE,5.8,-,N/A,,Clear,140,2013-08-18 18:53:00
3:53 PM,71.1,55.0,57,30.19,10.0,SE,5.8,-,N/A,,Clear,130,2013-08-18 19:53:00
4:53 PM,70.0,55.0,59,30.17,10.0,SSE,6.9,-,N/A,,Clear,160,2013-08-18 20:53:00
5:53 PM,69.1,55.9,63,30.16,10.0,South,4.6,-,N/A,,Partly Cloudy,170,2013-08-18 21:53:00
6:53 PM,66.9,57.0,70,30.14,10.0,ESE,3.5,-,0.00,,Mostly Cloudy,120,2013-08-18 22:53:00
7:53 PM,66.0,57.9,75,30.14,10.0,ESE,3.5,-,0.00,Rain,Light Rain,120,2013-08-18 23:53:00
8:53 PM,64.0,60.1,87,30.14,10.0,Calm,Calm,-,0.00,,Scattered Clouds,0,2013-08-19 00:53:00
9:53 PM,62.1,60.1,93,30.13,10.0,Calm,Calm,-,0.00,,Clear,0,2013-08-19 01:53:00
10:53 PM,60.1,57.9,93,30.10,10.0,SSE,4.6,-,N/A,,Clear,160,2013-08-19 02:53:00
11:53 PM,59.0,57.0,93,30.10,10.0,Calm,Calm,-,N/A,,Clear,0,2013-08-19 03:53:00